Weather Roundup
Issued by NWS

Home | Current Version | Previous Version | Graphics & Text | Print | Product List | Glossary Off
Versions: 1 2 3 4 5 6 7 8 9 10 11 12 13 14 15 16 17 18 19 20 21 22 23 24 25 26 27 28 29 30 31 32 33 34 35 36 37 38 39 40 41 42 43 44 45 46 47 48 49 50

000
NZUS93 KARX 270810
HRRWXR

CURRENT HOURLY OBSERVATIONS ACROSS
MUCH OF THE UPPER MISSISSIPPI VALLEY
NATIONAL WEATHER SERVICE LA CROSSE WI
200 AM CST THU NOV 27 2014


...SOUTHEAST MINNESOTA...


CITY           SKY/WX    TMP DP  RH WIND       PRES   REMARKS
ROCHESTER      MOCLDY    14   8  77 NW16      30.34R WCI  -2
ROCHESTER/MAYO CLOUDY    15   8  73 NW14G21   30.36R WCI   0
WINONA         FLURRIES  21  18  86 NW16      30.37R WCI   7
AUSTIN         FLURRIES  12   7  79 NW15      30.36R WCI  -4
ALBERT LEA     PTCLDY     7   3  85 NW10G16   30.38R WCI  -8
DODGE CENTER   MOCLDY    10   7  85 NW14      30.35R WCI  -5
PRESTON        FLURRIES  17  13  84 NW12G17   30.32R WCI   4
OWATONNA       PTCLDY     1  -6  71 NW6       30.40R WCI -10
FARIBAULT      PTCLDY     5  -4  66 NW7       30.41R WCI  -7
$$

...ELSEWHERE IN MINNESOTA...


CITY           SKY/WX    TMP DP  RH WIND       PRES   REMARKS
MINNEAPOLIS    CLEAR      5  -3  69 N9        30.45R WCI  -9
INTNL FALLS    PTCLDY   -14 -18  82 NW3       30.44F
DULUTH         CLEAR     -4 -10  75 NW7       30.36R WCI -18
RED WING       PTCLDY    12   1  62 N8        30.41R WCI   1
REDWOOD FALLS  PTCLDY    -3  -8  79 NW9       30.51R WCI -19
MANKATO        PTCLDY     1  -8  66 NW9       30.44R WCI -14
WORTHINGTON    PTCLDY    -2  -9  71 N12       30.44R WCI -20
FAIRMONT       PTCLDY     0  -8  71 NW18      30.43S WCI -22
$$

...SOUTHWEST WISCONSIN...


CITY           SKY/WX    TMP DP  RH WIND       PRES   REMARKS
LA CROSSE      CLOUDY    23  15  71 NW15      30.33R WCI  10
PRAIRIE DU CHI CLOUDY    25  18  75 NW5       30.32R WCI  19
BOSCOBEL       CLOUDY    25  19  78 NW3       30.31R
LONE ROCK      CLOUDY    26  19  74 W6        30.29R WCI  19
PLATTEVILLE    CLOUDY    24  20  86 NW5       30.28R WCI  18
FORT MC COY    CLOUDY    22  17  81 NW12      30.31R WCI  10
CAMP DOUGLAS   FLURRIES  21  21 100 NW9       30.28R WCI  11
VIROQUA        CLOUDY    21  18  86 NW9       30.26R WCI  11
WIS DELLS      CLOUDY    23  20  89 N8        30.25R WCI  13
$$

...ELSEWHERE IN WISCONSIN...


CITY           SKY/WX    TMP DP  RH WIND       PRES   REMARKS
MILWAUKEE      MOCLDY    22  16  78 NW8       30.20R WCI  12
MADISON        CLOUDY    22  19  89 NW5       30.25R WCI  16
GREEN BAY      CLOUDY    24  20  84 NW9       30.22R WCI  14
EAU CLAIRE     CLOUDY    12   5  73 N8        30.36R WCI   0
BLACK RVR FLS  FLURRIES  21  15  79 NW6       30.31R WCI  13
MEDFORD        CLOUDY    13   8  81 NW9       30.25R WCI   1
WAUSAU         CLOUDY    18  13  80 NW8       30.23R WCI   8
WIS RAPIDS     LGT SNOW  20  13  74 NW10      30.27R WCI   9
MARSHFIELD     FLURRIES  18  12  77 NW14      30.25R WCI   4
RICE LAKE      CLEAR      6  -1  72 NW8       30.38R WCI  -7
$$

...NORTHEAST IOWA...


CITY           SKY/WX    TMP DP  RH WIND       PRES   REMARKS
DECORAH        CLOUDY    21  18  86 NW9       30.31R WCI  11
MASON CITY     PTCLDY     7   3  84 NW18      30.40R WCI -12
CHARLES CITY   FLURRIES  16  10  79 NW15      30.36R WCI   1
OELWEIN        CLOUDY    23  19  86 NW16      30.33R WCI  10
$$

...ELSEWHERE IN IOWA...


CITY           SKY/WX    TMP DP  RH WIND       PRES   REMARKS
DES MOINES     FLURRIES  20  15  81 NW22      30.42R WCI   3
IOWA CITY      CLOUDY    26  22  84 NW9       30.35R WCI  17
FORT DODGE     PTCLDY     7   0  72 NW5       30.45R WCI  -2
$$

...NORTHERN ILLINOIS...


CITY           SKY/WX    TMP DP  RH WIND       PRES   REMARKS
CHICAGO-OHARE  CLOUDY    25  20  81 NW13      30.19R WCI  14
CHICAGO-MIDWAY LGT SNOW  29  22  75 NW9       30.20R WCI  20
MOLINE         MOCLDY    24  19  81 NW9       30.31R WCI  14
ROCKFORD       CLOUDY    20  16  84 NW7       30.27R FOG     WCI  11
PEORIA         MOCLDY    24  17  74 NW6       30.29R WCI  17
$$

NOTE: "FAIR" INDICATES FEW OR NO CLOUDS BELOW 12,000 FEET WITH NO
SIGNIFICANT WEATHER AND/OR OBSTRUCTIONS TO VISIBILITY. WIND
SPEEDS ARE IN MILES-PER-HOUR.



USA.gov is the U.S. government's official web portal to all federal, state and local government web resources and services.